| time (UTC) | temp C | wind direction | speed KPH | gust KPH | rain 1hr cm | rain 24hr cm | rain mn cm | humidity % | barometer mb |
| 20260506203053 | 11 | 0 | 0.0 | 4.8 | 0.00 | 0.00 | 0.00 | 72 | 1017.6 |
| 20260506201558 | 11 | 108 | 0.0 | 4.8 | 0.00 | 0.00 | 0.00 | 71 | 1017.5 |
| 20260506200058 | 11 | 150 | 0.0 | 3.2 | 0.00 | 0.00 | 0.00 | 71 | 1017.4 |
| 20260506194604 | 11 | 78 | 1.6 | 4.8 | 0.00 | 0.00 | 0.00 | 70 | 1017.0 |
| 20260506193053 | 11 | 0 | 0.0 | 4.8 | 0.00 | 0.00 | 0.00 | 70 | 1017.0 |
| 20260506191553 | 11 | 288 | 1.6 | 6.4 | 0.00 | 0.00 | 0.00 | 70 | 1016.8 |
| 20260506190056 | 11 | 30 | 1.6 | 6.4 | 0.00 | 0.00 | 0.00 | 70 | 1016.8 |
| 20260506184607 | 11 | 239 | 1.6 | 8.0 | 0.00 | 0.00 | 0.00 | 70 | 1016.5 |
| 20260506183103 | 11 | 333 | 3.2 | 12.9 | 0.00 | 0.00 | 0.00 | 69 | 1016.4 |
| 20260506181554 | 12 | 24 | 3.2 | 14.5 | 0.00 | 0.00 | 0.00 | 67 | 1016.2 |
| 20260506180055 | 12 | 328 | 6.4 | 14.5 | 0.00 | 0.00 | 0.00 | 65 | 1015.8 |
| 20260506174555 | 12 | 12 | 3.2 | 12.9 | 0.00 | 0.00 | 0.00 | 67 | 1015.8 |
| 20260506173054 | 12 | 5 | 8.0 | 17.7 | 0.00 | 0.00 | 0.00 | 63 | 1015.7 |
| 20260506171555 | 13 | 355 | 4.8 | 14.5 | 0.00 | 0.00 | 0.00 | 61 | 1015.6 |
| 20260506170107 | 13 | 360 | 6.4 | 16.1 | 0.00 | 0.00 | 0.00 | 63 | 1015.4 |
| 20260506164556 | 13 | 26 | 6.4 | 16.1 | 0.00 | 0.00 | 0.00 | 64 | 1015.2 |
| 20260506163106 | 13 | 12 | 6.4 | 16.1 | 0.00 | 0.00 | 0.00 | 66 | 1015.0 |
| 20260506161550 | 13 | 355 | 8.0 | 17.7 | 0.00 | 0.00 | 0.00 | 65 | 1014.8 |
| 20260506160056 | 14 | 5 | 8.0 | 17.7 | 0.00 | 0.00 | 0.00 | 64 | 1014.9 |
| 20260506154555 | 13 | 329 | 6.4 | 12.9 | 0.00 | 0.00 | 0.00 | 69 | 1014.9 |
| 20260506153054 | 13 | 338 | 6.4 | 11.3 | 0.00 | 0.00 | 0.00 | 69 | 1015.0 |
| 20260506151555 | 13 | 332 | 6.4 | 12.9 | 0.00 | 0.00 | 0.00 | 70 | 1014.9 |
| 20260506150046 | 13 | 339 | 6.4 | 16.1 | 0.00 | 0.00 | 0.00 | 69 | 1015.0 |
| 20260506144600 | 13 | 338 | 8.0 | 16.1 | 0.00 | 0.00 | 0.00 | 67 | 1014.9 |
| 20260506143050 | 13 | 336 | 9.7 | 19.3 | 0.00 | 0.00 | 0.00 | 67 | 1014.7 |
| 20260506141554 | 13 | 333 | 6.4 | 14.5 | 0.00 | 0.00 | 0.00 | 74 | 1014.9 |
| 20260506140054 | 13 | 333 | 6.4 | 16.1 | 0.00 | 0.00 | 0.00 | 74 | 1014.9 |
| 20260506134551 | 13 | 344 | 6.4 | 16.1 | 0.00 | 0.00 | 0.00 | 72 | 1014.9 |
| 20260506133052 | 13 | 328 | 8.0 | 16.1 | 0.00 | 0.00 | 0.00 | 68 | 1014.9 |
| 20260506131552 | 13 | 343 | 6.4 | 14.5 | 0.00 | 0.00 | 0.00 | 69 | 1014.8 |
| 20260506130059 | 13 | 342 | 8.0 | 14.5 | 0.00 | 0.00 | 0.00 | 67 | 1014.6 |
| 20260506124552 | 14 | 350 | 8.0 | 20.9 | 0.00 | 0.00 | 0.00 | 69 | 1014.6 |
| 20260506123052 | 14 | 9 | 8.0 | 19.3 | 0.00 | 0.00 | 0.00 | 70 | 1014.7 |
| 20260506121554 | 13 | 329 | 9.7 | 16.1 | 0.00 | 0.00 | 0.00 | 70 | 1014.5 |
| 20260506120047 | 14 | 329 | 11.3 | 17.7 | 0.00 | 0.00 | 0.00 | 72 | 1014.5 |
| 20260506114550 | 15 | 336 | 11.3 | 17.7 | 0.00 | 0.00 | 0.00 | 71 | 1014.5 |
| 20260506113052 | 15 | 330 | 9.7 | 19.3 | 0.00 | 0.00 | 0.00 | 71 | 1014.4 |
| 20260506111551 | 15 | 348 | 9.7 | 19.3 | 0.00 | 0.00 | 0.00 | 74 | 1014.4 |
| 20260506110050 | 13 | 350 | 9.7 | 19.3 | 0.00 | 0.00 | 0.00 | 74 | 1014.5 |
| 20260506104553 | 13 | 330 | 9.7 | 19.3 | 0.00 | 0.00 | 0.00 | 75 | 1014.5 |
| 20260506103053 | 13 | 321 | 8.0 | 20.9 | 0.00 | 0.00 | 0.00 | 80 | 1014.5 |
| 20260506101551 | 13 | 349 | 11.3 | 19.3 | 0.00 | 0.00 | 0.00 | 80 | 1014.5 |
| 20260506100050 | 13 | 336 | 8.0 | 17.7 | 0.00 | 0.00 | 0.00 | 83 | 1014.5 |
| 20260506094551 | 12 | 311 | 11.3 | 17.7 | 0.00 | 0.00 | 0.00 | 83 | 1014.4 |
| 20260506093052 | 12 | 344 | 8.0 | 16.1 | 0.00 | 0.00 | 0.00 | 86 | 1014.4 |
| 20260506091559 | 11 | 344 | 8.0 | 16.1 | 0.00 | 0.00 | 0.00 | 87 | 1014.4 |
| 20260506090056 | 11 | 340 | 8.0 | 14.5 | 0.00 | 0.00 | 0.00 | 90 | 1014.3 |
| 20260506084612 | 11 | 332 | 6.4 | 12.9 | 0.00 | 0.00 | 0.00 | 92 | 1014.2 |
| 20260506083056 | 10 | 336 | 6.4 | 12.9 | 0.00 | 0.00 | 0.00 | 93 | 1014.3 |
| 20260506081556 | 9 | 329 | 3.2 | 8.0 | 0.00 | 0.00 | 0.00 | 93 | 1014.1 |
| 20260506073100 | 9 | 330 | 1.6 | 6.4 | 0.00 | 0.00 | 0.00 | 93 | 1014.2 |
| 20260506071553 | 8 | 333 | 3.2 | 6.4 | 0.00 | 0.00 | 0.00 | 93 | 1014.1 |
| 20260506061602 | 8 | 336 | 6.4 | 12.9 | 0.00 | 0.00 | 0.00 | 92 | 1013.9 |
| 20260506050113 | 9 | 360 | 8.0 | 17.7 | 0.00 | 0.00 | 0.00 | 87 | 1013.5 |
| 20260506044552 | 9 | 344 | 6.4 | 14.5 | 0.00 | 0.00 | 0.00 | 87 | 1013.6 |
| 20260506043101 | 9 | 348 | 4.8 | 12.9 | 0.00 | 0.00 | 0.00 | 87 | 1013.6 |
| 20260506041553 | 9 | 326 | 8.0 | 14.5 | 0.00 | 0.00 | 0.00 | 87 | 1013.4 |
| 20260506034551 | 9 | 340 | 6.4 | 9.7 | 0.00 | 0.00 | 0.00 | 87 | 1013.6 |
| 20260506033050 | 9 | 342 | 6.4 | 9.7 | 0.00 | 0.00 | 0.00 | 87 | 1013.7 |
| 20260506031555 | 9 | 335 | 6.4 | 12.9 | 0.00 | 0.00 | 0.00 | 87 | 1013.7 |
| 20260506030056 | 8 | 349 | 4.8 | 9.7 | 0.00 | 0.00 | 0.00 | 87 | 1013.9 |
| 20260506024557 | 9 | 340 | 6.4 | 12.9 | 0.00 | 0.00 | 0.00 | 86 | 1013.9 |
| 20260506023051 | 9 | 348 | 6.4 | 12.9 | 0.00 | 0.00 | 0.00 | 86 | 1014.0 |
| 20260506021601 | 9 | 338 | 8.0 | 14.5 | 0.00 | 0.00 | 0.00 | 86 | 1014.1 |
| 20260506020050 | 8 | 360 | 4.8 | 9.7 | 0.00 | 0.00 | 0.00 | 86 | 1014.2 |
| 20260506014546 | 9 | 342 | 6.4 | 9.7 | 0.00 | 0.00 | 0.00 | 85 | 1014.2 |
| 20260506013057 | 9 | 349 | 6.4 | 16.1 | 0.00 | 0.00 | 0.00 | 84 | 1014.2 |
| 20260506011601 | 9 | 5 | 6.4 | 14.5 | 0.00 | 0.00 | 0.00 | 83 | 1014.3 |
| 20260506010053 | 9 | 340 | 6.4 | 14.5 | 0.00 | 0.00 | 0.00 | 83 | 1014.3 |
| 20260506004548 | 9 | 341 | 8.0 | 16.1 | 0.00 | 0.00 | 0.00 | 82 | 1014.4 |
| 20260506003058 | 10 | 355 | 6.4 | 16.1 | 0.00 | 0.00 | 0.00 | 82 | 1014.4 |
| 20260506001555 | 10 | 22 | 8.0 | 17.7 | 0.00 | 0.00 | 0.00 | 82 | 1014.6 |
| 20260506000049 | 10 | 360 | 8.0 | 19.3 | 0.00 | 0.00 | 0.00 | 82 | 1014.8 |
| 20260505234605 | 10 | 17 | 9.7 | 16.1 | 0.00 | 0.00 | 0.00 | 83 | 1014.8 |
| 20260505233051 | 10 | 27 | 6.4 | 16.1 | 0.00 | 0.00 | 0.00 | 83 | 1014.9 |
| 20260505231604 | 10 | 5 | 9.7 | 22.5 | 0.00 | 0.00 | 0.00 | 81 | 1014.9 |
| 20260505230052 | 10 | 13 | 11.3 | 19.3 | 0.00 | 0.00 | 0.00 | 81 | 1015.1 |
| 20260505224553 | 10 | 352 | 11.3 | 17.7 | 0.00 | 0.00 | 0.00 | 82 | 1014.9 |
| 20260505223103 | 10 | 355 | 8.0 | 17.7 | 0.00 | 0.00 | 0.00 | 82 | 1015.1 |
| 20260505221557 | 10 | 340 | 6.4 | 17.7 | 0.00 | 0.00 | 0.00 | 82 | 1015.2 |
| 20260505220053 | 10 | 5 | 9.7 | 20.9 | 0.00 | 0.00 | 0.00 | 81 | 1015.2 |
| 20260505214614 | 10 | 360 | 9.7 | 17.7 | 0.00 | 0.00 | 0.00 | 81 | 1015.1 |
| 20260505213100 | 10 | 5 | 9.7 | 22.5 | 0.00 | 0.00 | 0.00 | 81 | 1015.4 |
| 20260505211603 | 11 | 25 | 8.0 | 20.9 | 0.00 | 0.00 | 0.00 | 81 | 1015.2 |
| 20260505210052 | 11 | 360 | 9.7 | 24.1 | 0.00 | 0.00 | 0.00 | 80 | 1015.3 |
| 20260505204555 | 11 | 11 | 9.7 | 24.1 | 0.00 | 0.00 | 0.00 | 80 | 1015.3 |